Location: Assche-ter-Heiden
(50.9174°N, 4.1574°E)
Time: 18:57:47
(UTC+00:00)

COSMO-SKYMED 1 - Pass Details

Date: 20 January 2020
Orbit: 621 x 623 km, 97.9° (Epoch: 25 February)

Event Time Altitude Azimuth Distance (km) Brightness Sun altitude
Rises 05:12:27 0° 179° (S) 2,893 6.1 -22.1°
Reaches altitude 10° 05:14:42 10° 185° (S) 1,992 5.2 -21.7°
Enters shadow 05:17:50 39° 219° (SW) 940 3.2 -21.2°
